Location: Larkspur
(54.4391°N, 113.7691°W)
Time: 19:52:29
(UTC+00:00)

LilacSat-2 - Pass Details

Date: 07 December 2023
Orbit: 485 x 504 km, 97.5° (Epoch: 21 February)

Event Time Altitude Azimuth Distance (km) Brightness Sun altitude
Rises 12:55:30 0° 25° (NNE) 2,638 ? -22.6°
Reaches altitude 10° 12:58:07 10° 44° (NE) 1,747 ? -22.3°
Maximum altitude 13:00:50 19° 91° (E) 1,284 ? -21.9°
Drops below altitude 10° 13:03:32 10° 137° (SE) 1,737 ? -21.5°
Sets 13:06:06 0° 156° (SSE) 2,617 ? -21.1°
